CW2195 Weather Reports


time (UTC)temp
C
wind
direction
speed
KPH
gust
KPH
rain 1hr
cm
rain 24hr
cm
rain mn
cm
humidity
%
barometer
mb
20260510142004 21 186 3.2 9.7 0.00 0.00 0.00 59 1016.7
20260510141504 21 225 4.8 9.7 0.00 0.00 0.00 60 1016.7
20260510141004 20 180 4.8 8.0 0.00 0.00 0.00 59 1016.8
20260510140503 20 198 3.2 8.0 0.00 0.00 0.00 60 1016.9
20260510140004 20 177 3.2 8.0 0.00 0.00 0.00 62 1016.9
20260510135503 20 178 3.2 8.0 0.00 0.00 0.00 61 1017.0
20260510135005 20 203 3.2 8.0 0.00 0.00 0.00 61 1017.1
20260510134003 19 253 1.6 8.0 0.00 0.00 0.00 62 1017.0
20260510133504 19 333 1.6 8.0 0.00 0.00 0.00 64 1016.9
20260510133006 18 249 4.8 8.0 0.00 0.00 0.00 66 1017.0
20260510132005 18 203 4.8 8.0 0.00 0.00 0.00 68 1016.9
20260510131503 17 228 1.6 8.0 0.00 0.00 0.00 67 1017.0
20260510131004 17 226 3.2 8.0 0.00 0.00 0.00 68 1017.0
20260510130503 17 189 1.6 9.7 0.00 0.00 0.00 69 1017.0
20260510130004 17 246 3.2 9.7 0.00 0.00 0.00 69 1017.0
20260510125503 16 229 4.8 9.7 0.00 0.00 0.00 69 1017.0
20260510125004 16 234 4.8 11.3 0.00 0.00 0.00 70 1016.9
20260510124503 16 210 6.4 11.3 0.00 0.00 0.00 70 1016.8
20260510124003 16 195 3.2 12.9 0.00 0.00 0.00 71 1016.8
20260510123503 16 222 4.8 12.9 0.00 0.00 0.00 71 1016.8
20260510123004 16 201 4.8 12.9 0.00 0.00 0.00 71 1016.7
20260510122504 15 186 6.4 12.9 0.00 0.00 0.00 72 1016.7
20260510122003 15 196 4.8 12.9 0.00 0.00 0.00 73 1016.8
20260510121504 15 187 4.8 12.9 0.00 0.00 0.00 72 1016.8
20260510121004 15 197 4.8 11.3 0.00 0.00 0.00 72 1016.7
20260510120503 15 179 4.8 12.9 0.00 0.00 0.00 73 1016.7
20260510120004 15 207 3.2 12.9 0.00 0.00 0.00 73 1016.7
20260510115004 15 194 3.2 9.7 0.00 0.00 0.00 73 1016.6
20260510114503 14 193 4.8 11.3 0.00 0.00 0.00 74 1016.3
20260510114004 14 196 4.8 11.3 0.00 0.00 0.00 73 1016.3
20260510113504 14 191 8.0 22.5 0.00 0.00 0.00 74 1016.3
20260510113004 14 198 9.7 22.5 0.00 0.00 0.00 74 1016.3
20260510112503 14 207 4.8 11.3 0.00 0.00 0.00 75 1016.2
20260510112004 13 208 4.8 11.3 0.00 0.00 0.00 75 1016.0
20260510111504 13 196 4.8 11.3 0.00 0.00 0.00 75 1015.9
20260510111004 13 192 4.8 9.7 0.00 0.00 0.00 76 1016.0
20260510110504 12 180 4.8 9.7 0.00 0.00 0.00 79 1015.9
20260510110003 11 185 1.6 3.2 0.00 0.00 0.00 82 1015.7
20260510105504 11 36 0.0 0.0 0.00 0.00 0.00 82 1015.6
20260510105003 11 36 0.0 0.0 0.00 0.00 0.00 82 1015.5
20260510104503 11 36 0.0 0.0 0.00 0.00 0.00 83 1015.5
20260510104004 10 36 0.0 3.2 0.00 0.00 0.00 84 1015.4
20260510103504 10 64 0.0 3.2 0.00 0.00 0.00 85 1015.3
20260510103004 10 64 0.0 3.2 0.00 0.00 0.00 84 1015.2
20260510102504 10 64 0.0 0.0 0.00 0.00 0.00 83 1015.1
20260510102004 10 64 0.0 0.0 0.00 0.00 0.00 83 1015.1
20260510101504 10 64 0.0 1.6 0.00 0.00 0.00 83 1015.0
20260510101004 10 64 0.0 1.6 0.00 0.00 0.00 83 1015.1
20260510095004 10 64 1.6 4.8 0.00 0.00 0.00 84 1015.0
20260510094504 10 63 1.6 4.8 0.00 0.00 0.00 85 1015.0
20260510094005 10 60 3.2 4.8 0.00 0.00 0.00 84 1015.0
20260510093503 10 46 1.6 4.8 0.00 0.00 0.00 83 1014.9
20260510093004 10 15 1.6 4.8 0.00 0.00 0.00 82 1014.8
20260510092504 10 64 3.2 4.8 0.00 0.00 0.00 83 1014.8
20260510092003 10 52 1.6 4.8 0.00 0.00 0.00 82 1014.7
20260510091504 10 46 0.0 3.2 0.00 0.00 0.00 80 1014.7
20260510091004 11 46 0.0 0.0 0.00 0.00 0.00 81 1014.7
20260510090504 11 46 0.0 0.0 0.00 0.00 0.00 80 1014.7
20260510090004 11 46 0.0 0.0 0.00 0.00 0.00 81 1014.7
20260510085504 11 46 0.0 0.0 0.00 0.00 0.00 81 1014.7
20260510085003 10 46 0.0 0.0 0.00 0.00 0.00 81 1014.8
20260510084504 11 46 0.0 0.0 0.00 0.00 0.00 81 1014.7
20260510084004 11 46 0.0 0.0 0.00 0.00 0.00 80 1014.7
20260510083503 11 46 0.0 1.6 0.00 0.00 0.00 80 1014.7
20260510083004 11 46 0.0 1.6 0.00 0.00 0.00 80 1014.6
20260510082504 11 46 0.0 3.2 0.00 0.00 0.00 78 1014.6
20260510082003 11 46 0.0 4.8 0.00 0.00 0.00 79 1014.6
20260510081504 11 46 0.0 4.8 0.00 0.00 0.00 78 1014.4
20260510081005 11 46 1.6 4.8 0.00 0.00 0.00 78 1014.4
20260510080503 11 94 0.0 3.2 0.00 0.00 0.00 79 1014.2
20260510080004 11 90 0.0 3.2 0.00 0.00 0.00 79 1014.1
20260510075503 11 86 1.6 3.2 0.00 0.00 0.00 79 1014.2
20260510074504 11 317 0.0 1.6 0.00 0.00 0.00 78 1014.2
20260510074004 11 317 0.0 4.8 0.00 0.00 0.00 77 1014.2
20260510073503 11 317 0.0 4.8 0.00 0.00 0.00 76 1014.1
20260510073004 12 171 0.0 0.0 0.00 0.00 0.00 75 1014.1
20260510072504 12 171 0.0 0.0 0.00 0.00 0.00 75 1013.9
20260510071504 13 171 0.0 8.0 0.00 0.00 0.00 72 1013.8
20260510071005 13 171 0.0 8.0 0.00 0.00 0.00 70 1013.7
20260510070504 13 309 1.6 4.8 0.00 0.00 0.00 68 1013.8
20260510065503 14 207 1.6 4.8 0.00 0.00 0.00 67 1013.8
20260510065004 14 207 1.6 9.7 0.00 0.00 0.00 68 1013.7
20260510064504 14 187 3.2 9.7 0.00 0.00 0.00 68 1013.8
20260510064004 14 172 0.0 8.0 0.00 0.00 0.00 68 1013.8
20260510063504 13 172 1.6 8.0 0.00 0.00 0.00 69 1013.9
20260510063004 13 159 0.0 3.2 0.00 0.00 0.00 70 1013.9
20260510062503 13 153 0.0 4.8 0.00 0.00 0.00 71 1014.0
20260510062003 13 153 0.0 4.8 0.00 0.00 0.00 72 1014.0
20260510061504 12 73 0.0 1.6 0.00 0.00 0.00 74 1014.0
20260510061004 12 71 0.0 0.0 0.00 0.00 0.00 74 1014.0
20260510060504 12 71 0.0 3.2 0.00 0.00 0.00 75 1014.0
20260510060004 11 71 0.0 4.8 0.00 0.00 0.00 76 1014.1
20260510055503 12 71 1.6 4.8 0.00 0.00 0.00 75 1014.1
20260510055004 12 69 0.0 3.2 0.00 0.00 0.00 73 1014.2
20260510054504 13 69 0.0 0.0 0.00 0.00 0.00 70 1014.1
20260510054004 13 65 0.0 0.0 0.00 0.00 0.00 71 1014.1
20260510053504 13 65 0.0 0.0 0.00 0.00 0.00 71 1014.2
20260510053003 12 65 0.0 0.0 0.00 0.00 0.00 72 1014.1
20260510052503 12 65 0.0 0.0 0.00 0.00 0.00 72 1014.2
20260510052004 13 65 0.0 0.0 0.00 0.00 0.00 72 1014.1
20260510051504 12 65 0.0 1.6 0.00 0.00 0.00 72 1014.1
20260510051003 13 65 0.0 1.6 0.00 0.00 0.00 70 1014.0
20260510050004 13 65 0.0 0.0 0.00 0.00 0.00 69 1014.1
20260510045004 13 65 0.0 3.2 0.00 0.00 0.00 70 1013.9
20260510044004 13 65 0.0 0.0 0.00 0.00 0.00 70 1014.0
20260510043503 13 65 0.0 0.0 0.00 0.00 0.00 70 1014.0
20260510043003 13 65 0.0 0.0 0.00 0.00 0.00 70 1014.2
20260510042504 13 65 0.0 3.2 0.00 0.00 0.00 70 1014.1
20260510042005 13 65 0.0 3.2 0.00 0.00 0.00 70 1014.0
20260510041503 13 65 0.0 0.0 0.00 0.00 0.00 69 1014.0
20260510041004 14 65 0.0 0.0 0.00 0.00 0.00 67 1014.0
20260510040505 14 65 0.0 0.0 0.00 0.00 0.00 66 1013.9
20260510040004 15 65 0.0 1.6 0.00 0.00 0.00 65 1014.0
20260510035504 15 65 0.0 1.6 0.00 0.00 0.00 65 1014.0
20260510035003 14 65 0.0 1.6 0.00 0.00 0.00 66 1014.0
20260510034504 14 65 0.0 1.6 0.00 0.00 0.00 66 1014.1
20260510034004 14 65 0.0 1.6 0.00 0.00 0.00 65 1014.0
20260510033504 14 65 0.0 1.6 0.00 0.00 0.00 66 1014.0
20260510033004 14 65 0.0 4.8 0.00 0.00 0.00 66 1014.0
20260510032505 15 65 1.6 4.8 0.00 0.00 0.00 65 1013.7
20260510032004 15 355 0.0 4.8 0.00 0.00 0.00 63 1013.6
20260510031504 15 355 3.2 4.8 0.00 0.00 0.00 62 1013.7
20260510031006 15 119 0.0 1.6 0.00 0.00 0.00 62 1013.6
20260510030524 16 143 0.0 0.0 0.00 0.00 0.00 61 1013.6
20260510030004 16 144 0.0 1.6 0.00 0.00 0.00 60 1013.6
20260510025503 16 144 0.0 1.6 0.00 0.00 0.00 60 1013.7
20260510025004 16 144 0.0 1.6 0.00 0.00 0.00 60 1013.5
20260510024504 16 144 0.0 0.0 0.00 0.00 0.00 59 1013.4
20260510023504 16 144 0.0 0.0 0.00 0.00 0.00 58 1013.5
20260510023004 16 144 0.0 0.0 0.00 0.00 0.00 58 1013.4
20260510022004 17 144 0.0 0.0 0.00 0.00 0.00 56 1013.3
20260510021504 17 144 0.0 0.0 0.00 0.00 0.00 55 1013.3
20260510021004 17 144 0.0 0.0 0.00 0.00 0.00 56 1013.3
20260510020504 17 144 0.0 0.0 0.00 0.00 0.00 55 1013.2
20260510020005 17 144 0.0 0.0 0.00 0.00 0.00 54 1013.1
20260510015004 17 144 0.0 1.6 0.00 0.00 0.00 53 1012.9
20260510014504 18 144 0.0 1.6 0.00 0.00 0.00 53 1012.8
20260510014004 18 137 0.0 1.6 0.00 0.00 0.00 52 1012.5
20260510013504 18 135 0.0 1.6 0.00 0.00 0.00 51 1012.4
20260510013004 18 135 0.0 3.2 0.00 0.00 0.00 50 1012.3
20260510012504 18 135 0.0 4.8 0.00 0.00 0.00 49 1012.2
20260510011504 17 90 0.0 3.2 0.00 0.00 0.00 54 1012.1
20260510011004 17 60 0.0 1.6 0.00 0.00 0.00 55 1012.1
20260510010503 17 57 0.0 1.6 0.00 0.00 0.00 53 1012.0
20260510005004 18 332 0.0 1.6 0.00 0.00 0.00 49 1011.8
20260510004503 19 332 0.0 1.6 0.00 0.00 0.00 48 1011.9
20260510003503 20 334 0.0 4.8 0.00 0.00 0.00 46 1011.9
20260510003004 20 334 1.6 4.8 0.00 0.00 0.00 45 1011.8
20260510002504 20 308 1.6 4.8 0.00 0.00 0.00 44 1011.8
20260510002004 20 309 1.6 8.0 0.00 0.00 0.00 44 1011.7
20260510001004 20 355 4.8 19.3 0.00 0.00 0.00 44 1011.6
20260510000504 20 322 6.4 12.9 0.00 0.00 0.00 44 1011.4
20260510000005 20 346 1.6 9.7 0.00 0.00 0.00 44 1011.4
20260509235504 21 347 3.2 12.9 0.00 0.00 0.00 44 1011.2
20260509235004 21 335 3.2 12.9 0.00 0.00 0.00 44 1011.1
20260509234504 21 334 8.0 12.9 0.00 0.00 0.00 43 1011.0
20260509234005 21 337 4.8 12.9 0.00 0.00 0.00 43 1010.9
20260509233504 21 356 4.8 9.7 0.00 0.00 0.00 43 1010.7
20260509232503 22 353 3.2 12.9 0.00 0.00 0.00 43 1010.9
20260509232004 22 347 4.8 12.9 0.00 0.00 0.00 41 1010.8
20260509231507 22 353 4.8 16.1 0.00 0.00 0.00 41 1010.7
20260509231003 23 335 6.4 24.1 0.00 0.00 0.00 41 1010.7
20260509230504 23 334 9.7 24.1 0.00 0.00 0.00 39 1010.6
20260509230004 23 349 11.3 20.9 0.00 0.00 0.00 40 1010.6
20260509225503 23 322 9.7 20.9 0.00 0.00 0.00 40 1010.6
20260509225004 23 356 4.8 19.3 0.00 0.00 0.00 40 1010.5
20260509224504 23 269 3.2 19.3 0.00 0.00 0.00 40 1010.6
20260509224004 23 332 4.8 14.5 0.00 0.00 0.00 41 1010.6
20260509223504 23 340 4.8 12.9 0.00 0.00 0.00 41 1010.5
20260509223005 23 343 6.4 14.5 0.00 0.00 0.00 42 1010.5
20260509222004 24 317 4.8 16.1 0.00 0.00 0.00 40 1010.5
20260509221504 24 340 8.0 16.1 0.00 0.00 0.00 39 1010.4
20260509221004 24 317 4.8 19.3 0.00 0.00 0.00 38 1010.5
20260509220505 24 250 8.0 19.3 0.00 0.00 0.00 41 1010.5
20260509220004 23 271 3.2 12.9 0.00 0.00 0.00 42 1010.4
20260509215504 23 273 3.2 12.9 0.00 0.00 0.00 41 1010.3
20260509214504 23 267 8.0 16.1 0.00 0.00 0.00 41 1010.3
20260509214004 22 219 8.0 16.1 0.00 0.00 0.00 42 1010.3
20260509213004 22 233 6.4 19.3 0.00 0.00 0.00 42 1010.1
20260509212503 23 336 8.0 16.1 0.00 0.00 0.00 41 1010.0
20260509212003 23 240 4.8 16.1 0.00 0.00 0.00 40 1010.1
20260509211504 23 260 6.4 19.3 0.00 0.00 0.00 40 1009.9
20260509211004 23 221 9.7 19.3 0.00 0.00 0.00 40 1009.8
20260509210505 23 291 8.0 19.3 0.00 0.00 0.00 40 1009.8
20260509205504 23 255 1.6 16.1 0.00 0.00 0.00 41 1009.8
20260509205003 23 189 8.0 19.3 0.00 0.00 0.00 40 1009.7
20260509204504 23 218 9.7 19.3 0.00 0.00 0.00 38 1009.6
20260509203504 23 227 8.0 22.5 0.00 0.00 0.00 41 1009.7
20260509203004 23 200 6.4 22.5 0.00 0.00 0.00 40 1009.6
20260509202504 23 237 4.8 12.9 0.00 0.00 0.00 40 1009.7
20260509202003 24 228 3.2 16.1 0.00 0.00 0.00 38 1009.8
20260509201504 23 216 8.0 16.1 0.00 0.00 0.00 42 1009.8
20260509201004 23 261 4.8 16.1 0.00 0.00 0.00 41 1009.6
20260509200505 23 228 6.4 16.1 0.00 0.00 0.00 42 1009.7
20260509200004 23 219 8.0 16.1 0.00 0.00 0.00 39 1009.8
20260509195505 24 216 9.7 19.3 0.00 0.00 0.00 39 1009.7
20260509195003 23 273 8.0 19.3 0.00 0.00 0.00 42 1009.8
20260509194504 23 270 8.0 20.9 0.00 0.00 0.00 38 1009.8
20260509193005 24 181 9.7 19.3 0.00 0.00 0.00 37 1009.7
20260509192504 24 180 8.0 19.3 0.00 0.00 0.00 40 1009.7
20260509192005 24 220 9.7 19.3 0.00 0.00 0.00 38 1009.9
20260509191504 23 193 4.8 16.1 0.00 0.00 0.00 42 1010.0
20260509190004 23 200 6.4 22.5 0.00 0.00 0.00 40 1010.2
20260509185504 23 223 9.7 22.5 0.00 0.00 0.00 40 1010.3
20260509184504 23 185 8.0 14.5 0.00 0.00 0.00 41 1010.2
20260509183504 22 321 1.6 4.8 0.00 0.00 0.00 50 1010.3
20260509183004 22 151 1.6 12.9 0.00 0.00 0.00 50 1010.4
20260509182504 22 186 4.8 12.9 0.00 0.00 0.00 49 1010.6
20260509182004 22 242 4.8 16.1 0.00 0.00 0.00 46 1010.5
20260509181504 23 238 6.4 16.1 0.00 0.00 0.00 47 1010.6
20260509181004 22 168 3.2 19.3 0.00 0.00 0.00 49 1010.7
20260509180503 23 283 4.8 19.3 0.00 0.00 0.00 47 1010.8
20260509180005 23 196 4.8 19.3 0.00 0.00 0.00 47 1010.9
20260509175504 22 268 4.8 19.3 0.00 0.00 0.00 47 1011.0
20260509175004 22 237 3.2 14.5 0.00 0.00 0.00 47 1010.9
20260509174504 23 202 6.4 14.5 0.00 0.00 0.00 46 1010.9
20260509174004 23 183 8.0 14.5 0.00 0.00 0.00 46 1011.0
20260509173503 22 103 1.6 14.5 0.00 0.00 0.00 48 1011.1
20260509173004 22 192 4.8 14.5 0.00 0.00 0.00 51 1011.1
20260509172504 22 225 6.4 19.3 0.00 0.00 0.00 49 1011.2
20260509171504 22 184 8.0 14.5 0.00 0.00 0.00 51 1011.2
20260509171004 22 207 1.6 14.5 0.00 0.00 0.00 54 1011.3
20260509170504 22 209 6.4 12.9 0.00 0.00 0.00 53 1011.5
20260509165003 21 121 3.2 12.9 0.00 0.00 0.00 52 1011.7
20260509164505 21 203 4.8 12.9 0.00 0.00 0.00 56 1011.8
20260509163504 21 166 8.0 12.9 0.00 0.00 0.00 57 1012.0
20260509163004 21 237 4.8 11.3 0.00 0.00 0.00 57 1012.0
20260509162504 20 159 3.2 19.3 0.00 0.00 0.00 60 1012.0
20260509162004 20 203 8.0 19.3 0.00 0.00 0.00 58 1011.9
20260509161503 20 210 4.8 12.9 0.00 0.00 0.00 58 1011.9
20260509161004 20 221 3.2 12.9 0.00 0.00 0.00 57 1011.9
20260509160503 20 199 3.2 9.7 0.00 0.00 0.00 58 1012.1
20260509160006 19 176 0.0 9.7 0.00 0.00 0.00 58 1012.0
20260509155504 20 217 1.6 8.0 0.00 0.00 0.00 60 1012.0
20260509154504 18 151 0.0 8.0 0.00 0.00 0.00 58 1012.0
20260509154004 19 321 1.6 8.0 0.00 0.00 0.00 58 1012.3
20260509153005 18 250 0.0 9.7 0.00 0.00 0.00 60 1012.6
20260509152504 18 191 3.2 9.7 0.00 0.00 0.00 59 1012.7
20260509152005 18 212 3.2 9.7 0.00 0.00 0.00 63 1012.7
20260509151504 18 217 4.8 9.7 0.00 0.00 0.00 62 1012.6
20260509151005 18 263 1.6 4.8 0.00 0.00 0.00 63 1012.5
20260509150503 18 274 1.6 4.8 0.00 0.00 0.00 62 1012.2
20260509150004 17 344 3.2 8.0 0.00 0.00 0.00 64 1012.2
20260509145504 17 337 3.2 8.0 0.00 0.00 0.00 63 1012.4
20260509144504 16 219 1.6 8.0 0.00 0.00 0.00 66 1012.7
20260509143504 16 312 3.2 8.0 0.00 0.00 0.00 66 1012.9
20260509143004 16 235 3.2 8.0 0.00 0.00 0.00 65 1013.1